Temperature
16 16 16 16 15 15 15 15 15 14 14 15 15 15 15 15 15 15 15 15 15 15 15 15 15 14 14 14 14 14 14 14 14 14 14 14 14 14
15 15 15 15 15 15 15 15 15 15 14 15 15 15 15 15 15 14 14 14 14 14 14 14 14 14 14 14 14 14 14 14 14 14 14 14 14 14
15 15 15 15 15 15 15 15 15 14 14 14 15 15 14 14 14 14 14 14 14 14 14 14 14 14 14 14 14 14 14 14 14 14 14 14 14 14
15 15 15 15 15 15 14 14 14 14 14 14 14 14 14 14 14 14 14 14 14 14 14 14 14 14 14 14 14 14 14 14 14 14 14 14 14 14
14 14 14 14 14 14 14 14 14 14 14 14 14 14 14 14 14 14 13 13 13 13 13 13 13 13 13 13 13 13 13 13 14 14 14 14 14 14
14 14 14 14 14 14 14 14 14 14 14 14 13 13 13 13 13 13 13 13 13 13 13 13 13 13 13 13 13 13 13 13 13 13 13 13 13 13
14 14 13 13 13 13 13 13 13 13 13 13 13 13 13 13 13 13 13 13 13 13 13 13 13 13 13 13 13 13 13 13 13 13 13 13 13 13
13 13 13 13 13 13 13 13 13 13 13 13 13 13 13 12 12 12 12 12 12 12 12 12 12 12 13 13 13 13 13 13 13 13 12 12 12 12
13 13 13 12 12 12 12 12 12 12 12 12 12 12 12 12 12 12 12 12 12 12 12 12 12 12 12 12 12 12 12 12 12 12 12 12 12 12
13 12 12 12 12 12 12 12 12 12 12 12 12 12 12 12 12 12 12 12 12 11 11 11 12 12 12 12 12 12 12 12 12 12 12 12 12 12
12 12 12 12 12 12 12 12 12 12 12 12 12 12 12 12 12 11 11 11 11 11 11 11 11 11 11 11 11 11 11 12 12 12 11 11 11 11
12 12 12 12 12 11 11 11 11 11 11 11 11 11 11 11 11 11 11 11 11 11 11 11 11 11 11 11 11 11 11 11 11 11 11 11 11 11
11 11 11 11 11 11 11 11 11 11 11 11 11 11 11 11 11 11 11 11 11 10 10 10 10 10 10 10 10 10 11 11 11 11 11 11 11 11
11 11 11 11 11 11 11 11 11 11 11 10 10 10 10 10 10 10 10 10 10 10 10 10 10 10 10 10 10 10 10 10 10 11 11 11 11 10
11 11 11 10 10 10 10 10 10 10 10 10 10 10 10 10 10 10 10 10 10 10 10 10 10 10 10 10 10 10 10 10 10 10 10 10 10 10
11 10 10 10 10 10 10 10 10 10 10 10 10 10 10 10 10 10 10 9 10 10 10 10 10 10 9 9 9 9 10 10 10 10 10 10 10 10
10 10 10 10 10 10 10 10 10 10 10 10 10 9 9 9 9 9 9 9 9 9 9 9 9 9 9 9 9 9 9 9 9 10 10 10 10 10
10 10 10 10 10 10 10 10 10 10 10 9 9 9 9 9 9 9 9 9 9 9 9 9 9 9 9 9 8 9 9 9 9 9 9 9 9 9
10 10 10 10 10 9 9 9 9 9 9 9 9 9 9 9 9 9 9 9 9 8 8 8 8 8 8 8 8 8 8 8 8 8 9 9 9 9
10 10 10 10 9 9 9 9 9 9 9 9 9 9 9 9 8 8 8 8 8 8 8 8 8 8 8 8 8 8 8 8 8 8 8 9 9 9
10 10 9 9 9 9 9 9 9 9 9 9 9 9 9 8 8 8 8 8 8 8 8 8 8 8 8 8 8 8 8 8 8 8 8 8 8 9
9 9 9 9 9 9 9 9 9 8 8 8 8 8 8 8 8 8 8 8 8 8 7 7 8 8 8 8 8 8 8 8 8 8 8 8 8 8
9 9 9 9 9 9 8 8 8 8 8 8 8 8 8 8 8 8 8 8 8 7 7 7 7 7 7 7 7 7 7 8 8 8 8 8 8 8
Wind_Speed
0 0 0 1 1 1 1 2 2 2 3 3 2 3 2 4 6 7 7 9 9 8 9 11 12 12 12 12 12 12 11 11 11 12 12 12 13 14
1 1 1 1 1 1 0 0 1 2 3 3 3 3 3 3 5 6 7 8 8 7 7 10 12 13 13 12 12 11 11 11 11 12 13 13 12 13
1 1 2 1 1 1 1 1 1 1 2 3 2 3 2 2 2 3 5 5 5 6 6 7 10 12 12 12 12 12 12 12 11 12 12 12 12 12
2 1 2 2 2 2 1 1 1 1 2 3 3 2 2 2 1 2 3 4 4 5 6 6 7 10 11 12 12 12 11 11 11 11 11 12 12 12
1 1 2 2 2 2 2 1 1 1 1 1 2 2 2 2 1 1 2 1 3 5 6 6 7 8 9 10 11 11 10 10 10 10 10 11 11 11
1 1 1 1 1 2 1 1 1 1 1 0 1 2 2 2 1 1 2 2 2 3 3 4 5 6 7 8 9 9 10 10 10 10 9 9 10 11
2 2 1 2 2 2 1 1 0 0 1 1 1 2 2 2 2 1 2 2 3 2 1 2 2 3 4 6 7 9 10 10 10 10 9 9 9 10
1 2 2 2 4 4 4 2 1 1 1 0 1 2 2 2 2 2 1 1 2 2 0 2 1 2 3 4 6 8 9 9 9 9 9 9 9 9
1 1 2 3 3 2 3 4 3 2 1 2 2 3 3 3 2 2 1 2 3 2 1 2 1 2 3 4 6 8 8 9 10 10 9 9 9 8
1 1 1 2 3 2 2 3 3 3 3 1 2 3 3 3 3 3 2 1 2 2 1 1 2 2 2 2 3 6 7 9 10 10 10 9 9 9
2 1 1 1 4 3 2 2 3 4 4 3 2 2 3 3 1 1 0 1 1 2 1 1 1 1 1 2 3 3 4 6 8 9 9 9 8 8
2 2 2 2 3 2 1 1 2 4 4 5 4 5 3 3 2 2 2 2 1 2 2 1 1 0 1 2 2 2 2 4 6 7 8 8 8 6
2 2 3 3 3 3 2 1 3 3 3 2 3 3 3 3 2 1 2 2 2 3 2 1 1 1 1 1 2 2 1 1 3 4 6 7 8 7
2 2 3 4 4 4 3 3 4 3 1 2 2 3 3 3 3 2 2 3 3 4 3 2 2 2 2 1 2 2 1 1 2 2 3 5 6 7
2 3 4 5 5 4 5 5 3 1 1 1 2 3 3 3 3 2 1 1 1 2 2 2 2 2 2 2 2 2 1 1 1 1 2 3 4 4
3 4 5 5 4 4 4 4 2 1 1 2 3 3 2 2 2 1 1 0 1 3 2 1 2 2 1 1 2 2 1 1 1 1 1 2 2 4
2 2 2 2 3 3 3 3 2 1 1 2 2 2 2 2 2 2 1 0 0 1 2 2 1 1 1 1 1 2 1 1 1 1 1 1 1 3
0 1 2 2 3 3 3 3 2 2 2 2 2 2 2 2 2 2 1 0 1 1 1 1 1 2 2 2 1 2 1 1 1 1 1 1 2 2
0 2 2 3 3 3 3 2 3 3 2 2 2 2 2 2 2 2 2 1 1 2 2 1 0 1 0 2 3 1 2 1 1 1 1 1 3 3
2 2 3 3 3 3 3 3 3 2 2 2 2 2 2 2 2 2 2 2 2 2 2 1 2 2 3 3 3 3 2 2 2 2 1 1 1 1
3 3 3 3 3 3 3 3 3 2 2 2 2 3 2 2 2 3 2 2 2 2 2 3 4 3 2 1 1 2 3 2 3 3 2 1 1 1
3 3 3 3 3 3 3 2 2 2 2 2 2 3 3 2 3 3 2 2 2 2 3 2 2 1 1 2 2 2 3 3 1 1 3 4 4 4
3 3 3 3 3 3 3 3 2 2 2 2 2 3 3 3 3 3 3 3 2 2 1 1 1 1 2 2 2 2 2 1 1 1 3 4 4 6
Wind_Direction
300 311 319 294 328 260 184 171 181 252 284 269 279 284 251 225 224 212 215 224 224 226 224 222 222 221 221 220 220 219 217 218 221 222 221 221 221 222
301 350 334 301 309 302 222 233 193 201 247 268 262 276 272 252 233 217 217 222 218 219 226 225 220 217 218 219 222 221 219 220 222 225 223 223 224 223
309 315 297 293 303 296 275 259 249 203 249 285 283 294 284 289 256 222 220 214 216 218 226 227 221 216 218 221 224 222 220 220 223 225 222 220 220 221
304 320 312 321 314 300 289 272 256 230 217 273 301 311 300 276 256 243 236 223 215 225 226 231 229 222 220 222 225 222 220 221 222 223 220 219 220 220
309 318 319 352 342 331 329 318 296 308 208 227 290 308 318 333 338 296 284 270 242 240 234 233 240 238 231 229 225 222 220 219 219 220 219 216 215 217
343 328 325 323 313 305 315 306 318 346 338 258 305 325 328 335 3 325 319 313 291 278 253 238 244 246 242 236 229 223 221 220 221 221 221 217 216 215
350 340 346 3 5 359 353 312 328 8 0 356 319 336 328 339 317 291 292 306 300 284 282 267 251 252 249 244 240 232 226 224 222 222 219 217 218 214
334 335 336 349 4 10 12 18 68 165 215 223 273 285 277 275 279 288 278 306 298 294 224 284 259 262 256 236 236 233 227 222 220 218 215 214 213 208
288 307 333 346 4 353 350 4 354 328 245 210 243 265 253 248 241 284 273 249 259 264 229 281 280 261 257 250 234 227 228 222 215 211 209 208 206 204
311 275 299 327 343 350 350 355 339 329 305 283 234 256 264 253 223 219 227 252 295 294 199 241 277 268 282 273 247 229 229 221 211 207 208 206 204 202
343 342 334 306 327 -0 31 353 340 332 339 348 324 310 308 294 235 102 69 71 294 284 272 188 253 288 302 292 280 256 234 218 208 203 204 206 203 196
335 327 334 335 337 357 11 342 322 312 330 341 342 343 338 325 298 207 198 199 232 261 257 183 233 87 318 302 301 290 256 223 208 204 203 203 198 185
309 311 310 327 326 324 321 262 270 294 318 319 323 325 329 323 305 268 214 199 208 239 237 179 195 180 192 283 316 305 256 221 200 205 206 205 198 185
264 280 294 317 320 317 308 294 299 316 331 333 332 320 312 305 299 280 251 223 216 223 219 180 187 194 183 239 279 303 307 251 201 206 203 196 197 197
274 288 304 311 313 309 303 303 306 302 299 291 296 290 286 293 309 317 303 253 291 268 249 210 193 199 190 207 229 241 269 292 233 196 198 192 192 184
304 306 310 312 310 304 313 318 306 266 243 258 271 283 304 325 321 311 284 323 7 334 325 250 200 179 206 229 211 241 231 216 235 225 206 199 188 191
299 321 334 334 330 327 320 308 301 304 291 289 285 296 303 314 307 305 290 299 220 301 326 340 355 161 171 177 207 242 237 231 214 205 185 202 243 218
76 303 306 303 295 294 299 304 298 282 265 256 264 269 281 284 293 302 304 262 239 259 273 293 2 17 10 0 243 226 234 237 230 193 176 185 246 254
130 271 278 282 284 287 290 287 287 287 278 266 266 270 270 272 274 278 286 281 264 253 247 247 181 118 347 303 303 258 218 234 201 191 205 207 224 235
246 260 271 273 274 282 288 288 287 299 304 292 282 277 273 268 267 262 247 241 249 260 264 252 221 213 221 238 262 288 263 206 197 207 233 259 275 261
259 264 268 270 268 270 275 278 280 284 291 292 285 277 270 262 262 257 249 245 235 239 242 254 249 234 218 133 324 307 312 268 206 199 193 184 237 257
264 265 271 272 272 269 268 271 281 286 289 285 281 282 276 260 254 251 241 234 235 240 251 259 250 220 172 188 233 269 295 318 329 218 203 204 189 199
254 259 269 277 275 273 271 271 272 284 286 282 283 285 283 273 265 250 233 222 220 228 239 260 274 245 227 208 216 249 272 288 322 346 315 300 248 226
Height
1509 1509 1508 1508 1507 1506 1506 1505 1505 1502 1501 1501 1500 1500 1500 1499 1499 1498 1498 1498 1498 1497 1497 1498 1499 1499 1500 1502 1503 1504 1506 1508 1509 1511 1513 1515 1517 1519
1508 1507 1506 1506 1505 1505 1504 1503 1503 1501 1499 1498 1498 1497 1496 1496 1496 1495 1495 1495 1495 1494 1493 1494 1494 1495 1496 1497 1499 1500 1502 1503 1505 1507 1509 1511 1513 1514
1506 1505 1504 1504 1503 1502 1502 1501 1500 1499 1497 1496 1495 1494 1493 1493 1493 1493 1492 1492 1491 1491 1490 1490 1490 1491 1492 1493 1495 1496 1497 1499 1501 1503 1505 1506 1508 1510
1504 1503 1502 1502 1501 1500 1499 1498 1497 1496 1495 1493 1492 1492 1491 1490 1490 1490 1489 1489 1488 1488 1488 1487 1487 1487 1488 1489 1491 1492 1493 1495 1497 1499 1501 1502 1504 1506
1502 1501 1500 1500 1499 1498 1497 1496 1495 1494 1493 1491 1490 1490 1488 1488 1487 1487 1487 1487 1486 1486 1485 1485 1484 1484 1485 1486 1487 1488 1490 1491 1493 1495 1496 1498 1500 1502
1500 1499 1498 1498 1497 1496 1495 1494 1493 1491 1490 1489 1488 1487 1486 1486 1485 1484 1483 1484 1483 1483 1483 1483 1482 1482 1482 1482 1483 1484 1485 1487 1489 1491 1492 1494 1495 1497
1498 1497 1496 1496 1495 1494 1493 1491 1490 1489 1488 1487 1486 1485 1484 1484 1483 1482 1482 1481 1481 1481 1480 1480 1480 1479 1480 1480 1480 1481 1482 1483 1485 1486 1488 1490 1491 1493
1495 1495 1494 1493 1492 1491 1490 1490 1489 1487 1486 1485 1484 1483 1482 1482 1481 1480 1479 1479 1478 1479 1478 1477 1477 1477 1477 1477 1477 1477 1478 1480 1481 1482 1484 1486 1487 1488
1493 1493 1492 1491 1490 1489 1488 1488 1487 1486 1485 1484 1482 1481 1480 1480 1479 1478 1477 1477 1476 1476 1476 1474 1474 1474 1474 1474 1474 1475 1475 1476 1477 1479 1480 1481 1483 1484
1491 1491 1490 1488 1488 1487 1486 1485 1484 1484 1483 1481 1480 1479 1478 1477 1476 1476 1475 1475 1474 1474 1474 1472 1472 1471 1471 1471 1471 1472 1472 1473 1474 1476 1477 1478 1479 1481
1490 1489 1488 1487 1486 1485 1484 1483 1482 1481 1480 1479 1478 1477 1476 1475 1474 1473 1472 1472 1471 1471 1471 1470 1469 1469 1468 1468 1468 1468 1469 1470 1471 1472 1473 1475 1476 1477
1489 1488 1487 1486 1485 1483 1482 1480 1479 1478 1477 1476 1475 1474 1473 1473 1472 1471 1470 1469 1468 1468 1468 1468 1467 1466 1466 1466 1466 1466 1466 1467 1467 1469 1470 1471 1472 1474
1487 1486 1485 1484 1483 1482 1480 1479 1477 1476 1475 1474 1472 1471 1471 1470 1469 1468 1468 1467 1466 1466 1466 1466 1465 1464 1464 1463 1463 1464 1464 1465 1465 1466 1467 1468 1470 1471
1486 1485 1484 1483 1481 1480 1479 1477 1476 1475 1473 1472 1470 1469 1468 1467 1466 1465 1465 1464 1464 1464 1464 1463 1463 1462 1461 1461 1461 1461 1462 1462 1463 1463 1465 1466 1467 1468
1485 1484 1482 1481 1479 1478 1477 1475 1474 1472 1471 1469 1468 1467 1466 1465 1464 1463 1463 1462 1462 1461 1461 1461 1460 1460 1459 1459 1459 1459 1459 1459 1460 1460 1461 1462 1464 1465
1484 1482 1481 1479 1478 1476 1474 1473 1472 1470 1468 1467 1466 1465 1464 1463 1462 1461 1460 1460 1458 1458 1458 1458 1458 1457 1457 1456 1456 1456 1457 1457 1457 1458 1458 1460 1461 1462
1482 1480 1479 1477 1475 1473 1472 1470 1469 1468 1466 1465 1464 1462 1461 1461 1460 1459 1459 1458 1457 1456 1455 1455 1455 1455 1455 1455 1454 1454 1454 1454 1455 1455 1456 1456 1457 1458
1480 1478 1476 1475 1473 1471 1470 1468 1467 1466 1464 1463 1462 1460 1459 1459 1458 1457 1457 1456 1455 1454 1453 1453 1453 1453 1452 1452 1453 1452 1452 1452 1452 1453 1454 1454 1454 1455
1478 1476 1475 1473 1471 1470 1468 1466 1465 1464 1462 1461 1459 1458 1457 1456 1455 1454 1454 1453 1453 1452 1452 1452 1451 1451 1450 1449 1450 1451 1450 1450 1450 1450 1451 1452 1452 1453
1476 1474 1473 1471 1469 1468 1466 1465 1463 1461 1460 1458 1457 1455 1454 1453 1452 1451 1451 1451 1450 1450 1449 1449 1449 1449 1449 1448 1447 1447 1448 1448 1448 1448 1448 1449 1450 1451
1473 1472 1470 1469 1467 1465 1464 1462 1461 1459 1457 1455 1454 1452 1451 1450 1449 1448 1448 1448 1448 1447 1447 1446 1446 1447 1447 1447 1445 1444 1445 1445 1446 1446 1447 1447 1448 1448
1471 1469 1468 1466 1465 1463 1461 1460 1458 1456 1454 1452 1450 1449 1448 1446 1445 1445 1444 1444 1444 1444 1444 1444 1444 1444 1444 1443 1442 1442 1442 1442 1443 1444 1445 1446 1446 1446
1468 1466 1465 1463 1462 1460 1458 1456 1454 1452 1450 1449 1447 1445 1444 1443 1442 1441 1441 1441 1441 1441 1441 1441 1441 1441 1441 1441 1440 1440 1440 1440 1441 1441 1443 1443 1444 1444